Miscellaneous Local Product
Issued by NWS North Platte, NE

Home | Current Version | Previous Version | Text Only | Print | Product List | Glossary On
Versions: 1 2 3 4 5 6 7 8 9 10 11 12 13 14 15 16 17 18 19 20 21 22 23 24 25 26 27 28 29 30 31 32 33 34 35 36 37 38 39 40 41 42 43 44 45 46 47 48 49 50
607
AXUS43 KLBF 270210
MISLBF


WESTERN AND NORTH CENTRAL NEBRASKA HOURLY WEATHER ROUNDUP
NATIONAL WEATHER SERVICE NORTH PLATTE NE
900 PM CDT TUE JUL 26 2016

NOTE: "FAIR" INDICATES FEW OR NO CLOUDS BELOW 12,000 FEET WITH NO
SIGNIFICANT WEATHER AND/OR OBSTRUCTIONS TO VISIBILITY.

NOTE: STATIONS NOT REPORTING VARIABLES SUCH AS SKY/WEATHER OR
PRESSURE ARE PROVIDED BY RAWS AND APRS NETWORKS AND ARE NOT UNDER
NATIONAL WEATHER SERVICE QUALITY CONTROL.

...OBSERVATIONS IN AND NEAR THE EASTERN PANHANDLE OF NEBRASKA...

CITY           SKY/WX    TMP DP  RH WIND       PRES   REMARKS
PINE RIDGE     TSTM      69  60  73 N18G38    30.02R
CHADRON        TSTM      71  59  65 NE13G21   30.02R
ALLIANCE       CLOUDY    84  61  45 S8G28     29.93F
SIDNEY         CLEAR     80  50  34 SW10      30.07R
CRESCENT LAKE    N/A     82  66  58 S9          N/A
$$

...OBSERVATIONS IN NORTHERN NEBRASKA AND FAR SOUTHERN SOUTH DAKOTA...

CITY           SKY/WX    TMP DP  RH WIND       PRES   REMARKS
WINNER         MOCLDY    67  61  81 SE25G39   29.99R THUNDER
VALENTINE      TSTM      65  59  81 N51G66    29.95R
THEDFORD       PTCLDY    81  67  63 SE18G24   29.93F
AINSWORTH      MOCLDY    81  65  58 SE12      29.94S
O`NEILL        PTCLDY    79  65  60 SE8       30.00R
ORD            CLEAR     79  66  64 SE8       29.97S
BROKEN BOW     CLEAR     78  67  68 SE8       29.98F
VALENTINE NWR    N/A     82  68  62 S12         N/A
BUTTE            N/A     80  66  61 SE10        N/A
HALSEY           N/A     80  65  59 SE7G16      N/A
EWING            N/A     76  66  71 S3          N/A
$$

...OBSERVATIONS IN SOUTHWEST NEBRASKA AND FAR NORTHEAST COLORADO...

CITY           SKY/WX    TMP DP  RH WIND       PRES   REMARKS
HOLYOKE        FAIR      79  64  61 CALM      30.01S
IMPERIAL       CLOUDY    84  65  52 S12       29.97S
OGALLALA       PTCLDY    84  63  50 CALM      29.98R
NORTH PLATTE   CLOUDY    79  66  64 SE9       29.97S
MCCOOK         CLOUDY    83  63  50 SE10G22   29.97F
LEXINGTON      CLOUDY    79  65  62 SE10      29.99F
STAPLETON        N/A     77  68  72 CALM        N/A
GOTHENBURG       N/A     81  64  55 SE6         N/A
CALLAWAY         N/A     80  69  70 SE9         N/A
$$

...OBSERVATIONS IN CENTRAL LINCOLN COUNTY AREA...

CITY           SKY/WX    TMP DP  RH WIND       PRES   REMARKS
N.P. AIRPORT   CLOUDY    79  66  64 SE9       29.97S
N.P. DOWNTOWN    N/A     82  67  60 SE3G12      N/A
N.P. SOUTHEAST   N/A     80  66  62 SE6         N/A
N.P. HILLCREST   N/A     79  66  64 SE12        N/A
$$

...SOME OBSERVATIONS FROM AROUND THE REGION...

CITY           SKY/WX    TMP DP  RH WIND       PRES   REMARKS
DENVER         MOCLDY    84  40  21 NW10      30.14R
LARAMIE        CLOUDY    73  35  25 SW22G33   30.26R
CHEYENNE       CLOUDY    78  39  24 S6        30.17R
SCOTTSBLUFF    CLOUDY    83  45  26 S6        29.99S
RAPID CITY     CLOUDY    79  55  43 N16       29.98S
BISMARCK       MOCLDY    75  60  59 NE9       30.02R
PIERRE         MOCLDY    73  64  73 CALM      29.89F
SIOUX FALLS    MOCLDY    80  65  59 S15       29.97S
OMAHA          PTCLDY    81  68  64 E6        29.99S
GRAND ISLAND   PTCLDY    79  68  69 SE7       30.00S
KANSAS CITY    PTCLDY    81  66  60 E8        30.00F
WICHITA        PTCLDY    84  71  65 E12       29.98R
OKLAHOMA CITY  MOCLDY    81  70  69 SE8       29.95R
DALLAS         CLOUDY    87  72  60 NE6       29.89R HX  93
AMARILLO       CLEAR     83  59  44 SE14      30.05R
DODGE CITY     CLEAR     80  67  64 E7        30.02R
HAYS           CLEAR     79  63  57 S6        30.00R
GOODLAND       CLOUDY    67  61  81 E14       30.03F THUNDER
$$




USA.gov is the U.S. government's official web portal to all federal, state and local government web resources and services.